Home   Weather   Victoria   Past weeks

Flag for Canada Past Weather in Victoria, British Columbia, Canada — Yesterday and Last 2 Weeks

Now
36 °F

Clear.


Feels Like: 32 °F
Forecast: 38 / 43 °F
Wind: 5 mph from West

Location: Victoria Int. Airportb. C.

Current Time: Jan 23, 2017 at 7:25:42 pm

Latest Report: Jan 23, 2017 at 7:00 pm


Visibility: 20 mi

Pressure: 29.94 "Hg

Humidity: 93%

Dew Point: 34 °F

Location of VictoriaLocation

Past Weather in Victoria — Graph

°F

Victoria Temperature Yesterday

Maximum temperature yesterday: 46 °F (at 2:00 am)
Minimum temperature yesterday: 36 °F (at 10:41 pm)
Average temperature yesterday: 43 °F

High & Low Weather Summary for the Past Weeks

 TemperatureHumidityPressure
High50 °F (Jan 18, 11:00 am)100% (Jan 8, 6:00 pm)30.49 "Hg (Jan 8, 6:00 pm)
Low21 °F (Jan 12, 5:00 am)31% (Jan 11, 12:00 am)29.13 "Hg (Jan 20, 2:00 pm)
Average38 °F85%29.73 "Hg
* Reported Jan 8 6:00 pm — Jan 23 6:00 pm, Victoria, Weather by CustomWeather, © 2017

Note: Actual official high and low records may vary slightly from our data, if they occured in-between our weather recording intervals... More about our weather records

Advertising

Victoria Weather History for the Previous 24 Hours

Scroll right to see more
 ConditionsComfort  
Time TempWeatherWind HumidityBarometerVisibility
6:00 pm
Mon, Jan 23
36 °FPassing clouds.2 mph93%29.93 "Hg20 mi
5:00 pm43 °FPassing clouds.3 mph87%29.91 "Hg20 mi
4:00 pm46 °FPassing clouds.5 mph76%29.90 "Hg20 mi
3:00 pm46 °FPassing clouds.2 mph76%29.88 "Hg20 mi
2:00 pm46 °FPassing clouds.3 mph76%29.87 "Hg20 mi
1:00 pm46 °FPassing clouds.3 mph71%29.87 "Hg20 mi
12:00 pm45 °FPassing clouds.6 mph81%29.85 "Hg20 mi
11:00 am43 °FPassing clouds.7 mph87%29.86 "Hg20 mi
10:00 am37 °FBroken clouds.3 mph93%29.84 "Hg20 mi
9:00 am36 °FBroken clouds.5 mph100%29.82 "Hg15 mi
8:00 am34 °FScattered clouds.5 mph100%29.79 "Hg15 mi
7:37 am36 °FFog.5 mph93%29.78 "Hg20 mi
7:00 am36 °FPassing clouds.5 mph100%29.77 "Hg20 mi
6:00 am36 °FPartly cloudy.5 mph100%29.74 "Hg20 mi
5:00 am36 °FPassing clouds.5 mph93%29.73 "Hg20 mi
4:00 am36 °FPassing clouds.3 mph93%29.70 "Hg20 mi
3:00 am34 °FPassing clouds.7 mph100%29.68 "Hg20 mi
2:00 am36 °FPassing clouds.5 mph100%29.66 "Hg20 mi
1:00 am34 °FPassing clouds.2 mph100%29.64 "Hg20 mi
12:00 am36 °FPassing clouds.No wind100%29.63 "Hg20 mi
11:00 pm
Sun, Jan 22
36 °FPassing clouds.2 mph100%29.62 "Hg20 mi
10:41 pm36 °FPassing clouds.5 mph93%29.62 "Hg20 mi
10:00 pm41 °FPassing clouds.8 mph87%29.61 "Hg20 mi
9:00 pm41 °FPassing clouds.7 mph87%29.59 "Hg20 mi
8:00 pm43 °FPassing clouds.6 mph81%29.58 "Hg20 mi
7:00 pm45 °FMostly cloudy.8 mph81%29.57 "Hg30 mi
Weather by CustomWeather, © 2017

See weather overviewHow to use our weather pages